FW8113 Weather Reports


Display with metric or nautical units.
time (UTC)temp
F
wind
direction
speed
MPH
gust
MPH
rain 1hr
in
rain 24hr
in
rain mn
in
humidity
%
barometer
mb
20260504003631 52 67 2.0 3.0 0.00 0.00 0.00 45 1010.7
20260504003127 52 92 0.0 0.0 0.00 0.00 0.00 44 1010.3
20260504002624 52 123 0.0 0.0 0.00 0.00 0.00 44 1010.3
20260504002122 52 120 0.0 0.0 0.00 0.00 0.00 43 1010.3
20260504001619 53 177 1.0 3.0 0.00 0.00 0.00 43 1010.7
20260504001115 53 149 0.0 0.0 0.00 0.00 0.00 42 1010.3
20260504000613 53 161 1.0 2.0 0.00 0.00 0.00 41 1010.0
20260504000110 53 121 2.0 3.0 0.00 0.00 0.00 40 1010.0
20260503235608 53 229 2.0 2.0 0.00 0.00 0.00 41 1010.0
20260503235105 54 195 2.0 3.0 0.00 0.00 0.00 40 1010.0
20260503234603 54 153 3.0 3.0 0.00 0.00 0.00 39 1010.0
20260503234100 54 86 0.0 0.0 0.00 0.00 0.00 40 1010.0
20260503233556 54 33 4.0 7.0 0.00 0.00 0.00 39 1009.7
20260503233052 54 172 1.0 2.0 0.00 0.00 0.00 39 1009.7
20260503232550 55 99 1.0 2.0 0.00 0.00 0.00 37 1010.0
20260503232047 55 209 6.0 9.0 0.00 0.00 0.00 37 1009.7
20260503231545 55 273 5.0 5.0 0.00 0.00 0.00 37 1009.3
20260503231041 55 144 1.0 2.0 0.00 0.00 0.00 35 1009.0
20260503230538 55 37 3.0 3.0 0.00 0.00 0.00 35 1009.3
20260503230036 55 63 4.0 7.0 0.00 0.00 0.00 35 1009.3
20260503225532 55 36 4.0 5.0 0.00 0.00 0.00 34 1009.3
20260503225027 56 84 3.0 3.0 0.00 0.00 0.00 34 1009.3
20260503224525 56 199 5.0 7.0 0.00 0.00 0.00 33 1009.0
20260503224023 57 224 5.0 9.0 0.00 0.00 0.00 32 1009.0
20260503223520 57 179 7.0 9.0 0.00 0.00 0.00 31 1009.0
20260503223016 57 199 3.0 3.0 0.00 0.00 0.00 31 1009.0
20260503222514 57 283 4.0 5.0 0.00 0.00 0.00 31 1009.0
20260503222012 57 198 4.0 7.0 0.00 0.00 0.00 30 1009.0
20260503221510 58 97 9.0 14.0 0.00 0.00 0.00 30 1009.0
20260503221007 57 60 3.0 3.0 0.00 0.00 0.00 30 1009.3
20260503220503 57 155 3.0 3.0 0.00 0.00 0.00 30 1009.0
20260503220000 57 2 6.0 9.0 0.00 0.00 0.00 28 1009.0
20260503215457 58 51 2.0 5.0 0.00 0.00 0.00 29 1009.0
20260503214954 58 201 3.0 5.0 0.00 0.00 0.00 29 1009.0
20260503214452 58 166 5.0 7.0 0.00 0.00 0.00 28 1009.0
20260503213949 58 260 3.0 3.0 0.00 0.00 0.00 30 1009.3
20260503213447 58 165 4.0 10.0 0.00 0.00 0.00 28 1009.0
20260503212943 58 183 7.0 9.0 0.00 0.00 0.00 28 1009.0
20260503212441 58 202 4.0 7.0 0.00 0.00 0.00 29 1009.3
20260503211938 57 91 2.0 3.0 0.00 0.00 0.00 30 1009.3
20260503211435 57 159 2.0 3.0 0.00 0.00 0.00 30 1009.3
20260503210930 57 257 6.0 9.0 0.00 0.00 0.00 31 1009.0
20260503210427 58 19 10.0 14.0 0.00 0.00 0.00 29 1009.3
20260503205922 57 187 2.0 3.0 0.00 0.00 0.00 31 1009.0
20260503205420 56 216 2.0 3.0 0.00 0.00 0.00 31 1009.0
20260503204916 57 165 3.0 5.0 0.00 0.00 0.00 30 1009.0
20260503204413 57 276 5.0 7.0 0.00 0.00 0.00 30 1009.3
20260503203910 57 125 0.0 2.0 0.00 0.00 0.00 34 1009.3
20260503203408 56 62 6.0 9.0 0.00 0.00 0.00 33 1009.3
20260503202904 57 179 6.0 10.0 0.00 0.00 0.00 31 1009.3
20260503202403 57 191 3.0 3.0 0.00 0.00 0.00 37 1009.7
20260503201901 56 176 3.0 3.0 0.00 0.00 0.00 35 1009.7
20260503201357 55 87 5.0 7.0 0.00 0.00 0.00 36 1009.7
20260503200855 54 95 2.0 3.0 0.00 0.00 0.00 37 1009.7
20260503200350 54 130 0.0 0.0 0.00 0.00 0.00 37 1009.7
20260503195848 54 225 7.0 12.0 0.00 0.00 0.00 37 1009.7
20260503195344 54 220 10.0 12.0 0.00 0.00 0.00 36 1009.7
20260503194842 54 195 6.0 7.0 0.00 0.00 0.00 38 1009.7
20260503194337 55 150 4.0 5.0 0.00 0.00 0.00 38 1010.0
20260503193834 55 149 4.0 7.0 0.00 0.00 0.00 38 1010.0
20260503193330 55 93 2.0 5.0 0.00 0.00 0.00 38 1010.0
20260503192826 56 298 3.0 5.0 0.00 0.00 0.00 38 1010.0
20260503192321 55 34 4.0 7.0 0.00 0.00 0.00 39 1010.0
20260503191818 54 350 3.0 5.0 0.00 0.00 0.00 42 1010.0
20260503191315 55 14 3.0 5.0 0.00 0.00 0.00 38 1010.7
20260503190812 55 220 5.0 7.0 0.00 0.00 0.00 37 1010.3
20260503190309 54 219 3.0 5.0 0.00 0.00 0.00 37 1010.3
20260503185806 54 193 3.0 5.0 0.00 0.00 0.00 39 1010.3
20260503185304 55 13 5.0 7.0 0.00 0.00 0.00 37 1010.3
20260503184801 55 100 3.0 3.0 0.00 0.00 0.00 40 1010.7
20260503184258 55 142 0.0 0.0 0.00 0.00 0.00 39 1010.7
20260503183754 55 4 5.0 5.0 0.00 0.00 0.00 39 1010.7
20260503183252 53 30 8.0 10.0 0.00 0.00 0.00 41 1010.7
20260503182749 52 82 2.0 2.0 0.00 0.00 0.00 44 1010.7
20260503182248 52 203 7.0 12.0 0.00 0.00 0.00 42 1010.7
20260503181744 53 46 5.0 9.0 0.00 0.00 0.00 41 1010.7
20260503181241 52 27 4.0 5.0 0.00 0.00 0.00 43 1010.7
20260503180738 51 261 8.0 14.0 0.00 0.00 0.00 43 1010.7
20260503180236 50 53 3.0 5.0 0.00 0.00 0.00 44 1010.7
20260503175732 51 187 3.0 3.0 0.00 0.00 0.00 45 1011.0
20260503175230 50 207 3.0 9.0 0.00 0.00 0.00 46 1011.0
20260503174726 50 162 1.0 2.0 0.00 0.00 0.00 47 1010.7
20260503174225 49 304 3.0 5.0 0.00 0.00 0.00 47 1011.0
20260503173725 49 252 3.0 3.0 0.00 0.00 0.00 46 1011.0
20260503173221 50 75 8.0 12.0 0.00 0.00 0.00 45 1011.0
20260503172718 50 192 4.0 5.0 0.00 0.00 0.00 47 1011.0
20260503172215 50 222 3.0 5.0 0.00 0.00 0.00 45 1011.0
20260503171711 50 220 2.0 2.0 0.00 0.00 0.00 47 1011.0
20260503171209 50 177 13.0 15.0 0.00 0.00 0.00 43 1011.0
20260503170705 50 136 2.0 3.0 0.00 0.00 0.00 46 1010.7
20260503170203 49 195 2.0 3.0 0.00 0.00 0.00 48 1011.0
20260503160124 50 292 8.0 10.0 0.00 0.00 0.00 45 1011.0
20260503150554 50 265 3.0 7.0 0.00 0.00 0.00 48 1011.4
20260503130944 45 341 2.0 3.0 0.00 0.00 0.00 65 1011.7
20260503130442 45 210 4.0 5.0 0.00 0.00 0.00 66 1011.7
20260503110326 41 92 0.0 0.0 0.00 0.00 0.00 74 1011.4
20260503100252 40 122 0.0 0.0 0.00 0.00 0.00 75 1011.0
20260503090212 39 142 0.0 0.0 0.00 0.00 0.00 78 1011.0
20260503081139 38 112 0.0 0.0 0.00 0.00 0.00 77 1011.7
20260503080635 38 120 0.0 0.0 0.00 0.00 0.00 77 1011.7
20260503080132 38 130 0.0 0.0 0.00 0.00 0.00 77 1011.7
20260503072609 39 125 0.0 0.0 0.00 0.00 0.00 75 1011.7
20260503072106 39 124 0.0 2.0 0.00 0.00 0.00 75 1012.0
20260503071602 39 157 0.0 2.0 0.00 0.00 0.00 75 1012.0
20260503071059 39 174 2.0 3.0 0.00 0.00 0.00 75 1011.7
20260503070556 39 133 0.0 0.0 0.00 0.00 0.00 75 1011.7
20260503055015 40 130 0.0 0.0 0.00 0.00 0.00 70 1012.4
20260503054510 40 64 1.0 2.0 0.00 0.00 0.00 70 1012.4
20260503054008 40 153 1.0 2.0 0.00 0.00 0.00 70 1012.4
20260503053506 40 176 1.0 2.0 0.00 0.00 0.00 70 1012.4
20260503053003 40 95 0.0 0.0 0.00 0.00 0.00 70 1012.4
20260503052500 40 141 0.0 0.0 0.00 0.00 0.00 70 1012.4
20260503051956 40 185 0.0 0.0 0.00 0.00 0.00 70 1012.4
20260503051452 40 177 1.0 2.0 0.00 0.00 0.00 70 1012.4
20260503050950 40 139 0.0 2.0 0.00 0.00 0.00 70 1012.7
20260503050445 40 159 2.0 2.0 0.00 0.00 0.00 70 1012.7
20260503045943 40 140 0.0 2.0 0.00 0.00 0.00 69 1012.7
20260503045440 40 124 1.0 2.0 0.00 0.00 0.00 69 1012.7
20260503044937 40 133 1.0 2.0 0.00 0.00 0.00 69 1012.7
20260503044433 41 111 1.0 2.0 0.00 0.00 0.00 68 1012.7
20260503043931 41 138 0.0 0.0 0.00 0.00 0.00 68 1012.7
20260503043427 41 182 0.0 2.0 0.00 0.00 0.00 68 1012.7
20260503042924 41 121 0.0 0.0 0.00 0.00 0.00 68 1012.7
20260503042421 41 85 0.0 0.0 0.00 0.00 0.00 68 1012.7
20260503041917 41 138 1.0 2.0 0.00 0.00 0.00 68 1012.7
20260503041414 41 112 0.0 0.0 0.00 0.00 0.00 68 1013.0
20260503040912 41 121 0.0 0.0 0.00 0.00 0.00 68 1013.0
20260503040409 41 133 0.0 0.0 0.00 0.00 0.00 67 1013.0
20260503035906 41 133 0.0 0.0 0.00 0.04 0.04 68 1013.0
20260503035403 41 241 0.0 0.0 0.00 0.04 0.04 67 1012.7
20260503034900 41 99 2.0 2.0 0.00 0.04 0.04 67 1013.0
20260503034358 41 127 0.0 0.0 0.00 0.04 0.04 68 1013.4
20260503033854 41 125 0.0 0.0 0.00 0.04 0.04 68 1013.0
20260503033352 41 122 0.0 0.0 0.00 0.04 0.04 68 1013.4
20260503032850 41 137 0.0 0.0 0.00 0.04 0.04 68 1013.4
20260503032349 41 117 0.0 0.0 0.00 0.04 0.04 68 1013.4
20260503031846 41 116 0.0 0.0 0.00 0.04 0.04 67 1013.4
20260503031343 42 117 0.0 0.0 0.00 0.04 0.04 66 1013.4
20260503030839 42 121 0.0 0.0 0.00 0.04 0.04 66 1013.4
20260503030336 42 117 0.0 0.0 0.00 0.04 0.04 66 1013.4
20260503025833 42 118 0.0 0.0 0.00 0.04 0.04 66 1013.4
20260503025330 42 118 0.0 0.0 0.00 0.04 0.04 65 1013.8
20260503024827 43 118 0.0 0.0 0.00 0.04 0.04 64 1013.8
20260503024324 43 119 0.0 0.0 0.00 0.04 0.04 63 1013.4
20260503023820 43 120 0.0 0.0 0.00 0.04 0.04 63 1013.4
20260503023318 43 119 0.0 0.0 0.00 0.04 0.04 61 1013.4
20260503022815 43 119 0.0 0.0 0.00 0.04 0.04 60 1013.4
20260503022314 44 119 0.0 0.0 0.00 0.04 0.04 60 1013.8
20260503021811 44 120 0.0 0.0 0.00 0.04 0.04 59 1013.4
20260503021307 44 120 0.0 0.0 0.00 0.04 0.04 59 1013.8
20260503020805 44 119 0.0 0.0 0.00 0.04 0.04 59 1013.8
20260503020303 44 119 0.0 0.0 0.00 0.04 0.04 58 1013.8
20260503015759 45 119 0.0 0.0 0.00 0.04 0.04 58 1013.8
20260503015256 45 119 0.0 0.0 0.00 0.04 0.04 57 1013.8
20260503014751 45 126 0.0 0.0 0.00 0.04 0.04 57 1013.8
20260503014249 45 135 1.0 2.0 0.00 0.04 0.04 57 1013.8
20260503013746 45 122 0.0 2.0 0.00 0.04 0.04 56 1013.8
20260503013244 46 162 1.0 2.0 0.00 0.04 0.04 56 1013.8
20260503012741 46 146 5.0 7.0 0.00 0.04 0.04 55 1013.8
20260503012238 46 90 0.0 0.0 0.00 0.04 0.04 55 1013.8
20260503011735 46 196 0.0 2.0 0.00 0.04 0.04 55 1013.8
20260503011232 46 204 2.0 2.0 0.00 0.04 0.04 54 1013.4
20260503010728 46 133 1.0 2.0 0.00 0.04 0.04 55 1013.4
20260503010225 46 117 0.0 0.0 0.00 0.04 0.04 55 1013.4
20260503005723 47 122 0.0 0.0 0.00 0.04 0.04 55 1013.4
20260503005220 47 64 0.0 2.0 0.00 0.04 0.04 55 1013.4
20260503004716 47 209 3.0 3.0 0.00 0.04 0.04 55 1013.0
20260503004214 47 322 2.0 3.0 0.00 0.04 0.04 55 1013.4